Weather in Kidero

Russia / Republic of Dagestan     42°11′38″N   45°57′18″E
temp.,
°C
wind,
m/s
gust,
m/s
humid.,
%
clouds,
%
prec.,
mm/h
press.,
hPa
HPBL,
m
14 june, mon
mon1400:00+4ene11860 0.0 101610
03:00+3e11840 0.0 101611
06:00+7sse11790 0.0 101663
09:00+14ssw34420 0.0 10141150
12:00+16ssw35424 0.0 10141756
15:00+16ssw34444 0.0 10141766
18:00+13ssw23620 0.0 1014685
21:00+7sse22810 0.0 101716
15 june, tue
tue1500:00+6ssw11800 0.0 101715
03:00+6sse11830 0.0 101615
06:00+10s22770 0.0 1014101
09:00+13sw357399 2.6 1014850
12:00+16ssw3104133 1.7 10122291
15:00+17ssw36360 1.8 10121808
18:00+15ssw22570 0.0 1013331
21:00+8e11730 0.0 101611
16 june, wed
wed1600:00+8se11630 0.0 101512
03:00+7se11690 0.0 101613
06:00+11sse12700 0.0 101672
09:00+17ssw34510 0.0 10131046
12:00+20ssw35430 0.0 10131565
15:00+20ssw35420 0.0 10121525
18:00+16ssw23660 0.0 1014521
21:00+9s12910 0.0 101716
17 june, thu
thu1700:00+8se11890 0.0 101615
03:00+8sse11840 0.0 101514
06:00+12s12630 0.0 101464
09:00+18ssw35350 0.0 10121062
12:00+19ssw35380 0.0 10121490
15:00+19ssw34410 0.0 10121330
18:00+16ssw22580 0.1 1014381
21:00+10ne11771 0.3 101710
18 june, fri
fri1800:00+9nne21780 0.0 101811
03:00+8nne22780 0.0 101814
06:00+12ne117211 0.0 101873
09:00+17sw124750 1.0 10161327
12:00+19sw134023 0.9 10161971
15:00+19sw124155 2.1 10161930
18:00+14n227311 0.9 1018361
21:00+9nne22923 1.2 102323